Weather in Mailuu-Suu

Kyrgyzstan     41°15′49″N   72°28′06″E
temp.,
°C
wind,
m/s
gust,
m/s
humid.,
%
clouds,
%
prec.,
mm/h
press.,
hPa
HPBL,
m
12 august, fri
fri1200:00+20ene223198 0.0 101112
03:00+18ene33375 0.0 101119
06:00+17ne22371 0.0 101112
09:00+23s22270 0.0 1012721
12:00+27sw43200 0.0 10091838
15:00+30wsw54170 0.0 10062443
18:00+29wsw54170 0.0 10062250
21:00+22nne11270 0.0 100811
13 august, sat
sat1300:00+21ne33300 0.0 100822
03:00+20ene33320 0.0 100917
06:00+19ne33320 0.0 100918
09:00+25s22230 0.0 1009724
12:00+30sw43160 0.0 10072005
15:00+33wsw54110 0.0 10052744
18:00+32wsw43100 0.0 10042367
21:00+24nne33200 0.0 100614
14 august, sun
sun1400:00+23ne44220 0.0 100624
03:00+22ne33220 0.0 100621
06:00+21ne33230 0.0 100618
09:00+27ssw21170 0.0 1006610
12:00+32sw43130 0.0 10041966
15:00+35wsw53110 0.0 10022622
18:00+34wsw54120 0.0 10011992
21:00+25ne22214 0.0 100412
15 august, mon
mon1500:00+24ne43243 0.0 100422
03:00+23ene33252 0.0 100419
06:00+22ene33260 0.0 100517
09:00+28sse23180 0.0 1005691
12:00+32ssw43130 0.0 10031684
15:00+34sw54120 0.0 10012203
18:00+34sw54110 0.0 10012519
21:00+26nne22191 0.0 100313
16 august, tue
tue1600:00+24ene33215 0.0 100420
03:00+23ene332368 0.0 100425
06:00+23e442367 0.0 100546
09:00+27sse451851 0.0 1006945
12:00+30sse541523 0.0 10051348
15:00+33sw58122 0.0 10022899
18:00+33sw79120 0.0 10013311
21:00+25ne43200 0.0 100426